| time (UTC) | temp F | wind direction | speed MPH | gust MPH | rain 1hr in | rain 24hr in | rain mn in | humidity % | barometer mb |
| 20260506060403 | 58 | 90 | 0.0 | 2.0 | 0.00 | 0.19 | 0.13 | 99 | 1009.3 |
| 20260506060218 | 57 | 90 | 0.0 | 2.0 | 0.00 | 0.19 | 0.13 | 99 | 1009.4 |
| 20260506051203 | 56 | 97 | 0.0 | 2.0 | 0.00 | 0.19 | 0.13 | 99 | 1009.5 |
| 20260506050803 | 56 | 110 | 1.0 | 2.0 | 0.00 | 0.19 | 0.13 | 99 | 1009.7 |
| 20260506050403 | 56 | 0 | 0.0 | 0.0 | 0.00 | 0.19 | 0.13 | 99 | 1009.7 |
| 20260506044803 | 56 | 0 | 0.0 | 0.0 | 0.00 | 0.19 | 0.13 | 99 | 1009.7 |
| 20260506044404 | 56 | 0 | 0.0 | 0.0 | 0.00 | 0.19 | 0.13 | 99 | 1009.5 |
| 20260506044004 | 56 | 0 | 0.0 | 0.0 | 0.01 | 0.19 | 0.13 | 99 | 1009.7 |
| 20260506043603 | 56 | 266 | 0.0 | 2.0 | 0.06 | 0.19 | 0.13 | 99 | 1009.6 |
| 20260506043204 | 56 | 267 | 0.0 | 2.0 | 0.07 | 0.19 | 0.13 | 99 | 1009.4 |
| 20260506042804 | 56 | 293 | 0.0 | 4.0 | 0.12 | 0.19 | 0.13 | 99 | 1009.2 |
| 20260506042403 | 56 | 324 | 0.0 | 4.0 | 0.13 | 0.19 | 0.13 | 99 | 1009.2 |
| 20260506042217 | 56 | 331 | 0.0 | 4.0 | 0.13 | 0.19 | 0.13 | 99 | 1009.1 |
| 20260506041603 | 56 | 350 | 2.0 | 4.0 | 0.13 | 0.19 | 0.13 | 99 | 1008.9 |
| 20260506041203 | 56 | 330 | 0.0 | 2.0 | 0.13 | 0.19 | 0.13 | 99 | 1009.1 |
| 20260506040803 | 56 | 285 | 0.0 | 4.0 | 0.13 | 0.19 | 0.13 | 99 | 1009.0 |
| 20260506040404 | 56 | 291 | 0.0 | 4.0 | 0.13 | 0.19 | 0.13 | 99 | 1009.3 |
| 20260506040003 | 56 | 332 | 1.0 | 4.0 | 0.13 | 0.19 | 0.13 | 99 | 1009.2 |
| 20260506035605 | 56 | 13 | 1.0 | 4.0 | 0.13 | 0.19 | 0.13 | 99 | 1009.3 |
| 20260506035203 | 56 | 10 | 2.0 | 4.0 | 0.13 | 0.19 | 0.13 | 99 | 1009.3 |
| 20260506034804 | 56 | 358 | 2.0 | 4.0 | 0.13 | 0.19 | 0.13 | 99 | 1009.2 |
| 20260506034403 | 56 | 354 | 1.0 | 2.0 | 0.13 | 0.19 | 0.13 | 99 | 1008.9 |
| 20260506034216 | 56 | 355 | 1.0 | 2.0 | 0.12 | 0.18 | 0.12 | 99 | 1009.3 |
| 20260506033604 | 56 | 40 | 0.0 | 2.0 | 0.07 | 0.13 | 0.07 | 99 | 1009.6 |
| 20260506033204 | 56 | 59 | 0.0 | 2.0 | 0.06 | 0.12 | 0.06 | 99 | 1009.3 |
| 20260506032804 | 56 | 119 | 0.0 | 2.0 | 0.01 | 0.07 | 0.01 | 99 | 1009.4 |
| 20260506032403 | 56 | 164 | 0.0 | 2.0 | 0.00 | 0.06 | 0.00 | 98 | 1009.6 |
| 20260506032003 | 56 | 253 | 0.0 | 2.0 | 0.00 | 0.06 | 0.00 | 98 | 1010.0 |
| 20260506031817 | 56 | 270 | 0.0 | 2.0 | 0.00 | 0.06 | 0.00 | 98 | 1009.9 |
| 20260506031204 | 56 | 270 | 1.0 | 2.0 | 0.00 | 0.06 | 0.00 | 98 | 1009.7 |
| 20260506031016 | 56 | 270 | 0.0 | 2.0 | 0.00 | 0.06 | 0.00 | 98 | 1009.7 |
| 20260506030404 | 56 | 0 | 0.0 | 0.0 | 0.00 | 0.06 | 0.00 | 98 | 1009.7 |
| 20260506030004 | 56 | 270 | 0.0 | 2.0 | 0.00 | 0.06 | 0.00 | 98 | 1009.8 |
| 20260506025603 | 56 | 270 | 0.0 | 2.0 | 0.00 | 0.06 | 0.00 | 98 | 1009.8 |
| 20260506025203 | 56 | 270 | 0.0 | 2.0 | 0.00 | 0.06 | 0.00 | 98 | 1009.7 |
| 20260506024803 | 56 | 270 | 0.0 | 2.0 | 0.00 | 0.06 | 0.00 | 98 | 1009.8 |
| 20260506024404 | 56 | 270 | 0.0 | 2.0 | 0.00 | 0.06 | 0.00 | 98 | 1009.8 |
| 20260506024005 | 56 | 283 | 0.0 | 2.0 | 0.00 | 0.06 | 0.00 | 98 | 1010.0 |
| 20260506023816 | 56 | 282 | 0.0 | 2.0 | 0.00 | 0.06 | 0.00 | 98 | 1009.9 |
| 20260506023204 | 56 | 278 | 0.0 | 2.0 | 0.00 | 0.06 | 0.00 | 98 | 1009.9 |
| 20260506022805 | 56 | 270 | 1.0 | 2.0 | 0.00 | 0.06 | 0.00 | 98 | 1010.1 |
| 20260506022404 | 56 | 261 | 0.0 | 2.0 | 0.00 | 0.06 | 0.00 | 98 | 1010.0 |
| 20260506022003 | 56 | 267 | 0.0 | 2.0 | 0.00 | 0.06 | 0.00 | 98 | 1010.0 |
| 20260506021603 | 56 | 271 | 0.0 | 2.0 | 0.00 | 0.06 | 0.00 | 98 | 1010.1 |
| 20260506021203 | 56 | 322 | 0.0 | 2.0 | 0.00 | 0.06 | 0.00 | 98 | 1009.8 |
| 20260506020804 | 56 | 344 | 0.0 | 2.0 | 0.00 | 0.06 | 0.00 | 98 | 1010.1 |
| 20260506020403 | 56 | 346 | 1.0 | 2.0 | 0.00 | 0.06 | 0.00 | 98 | 1010.1 |
| 20260506020004 | 56 | 299 | 0.0 | 2.0 | 0.00 | 0.06 | 0.00 | 97 | 1010.2 |
| 20260506015604 | 56 | 299 | 0.0 | 2.0 | 0.00 | 0.06 | 0.00 | 97 | 1010.2 |
| 20260506015203 | 56 | 290 | 0.0 | 2.0 | 0.00 | 0.06 | 0.00 | 97 | 1010.0 |
| 20260506014803 | 56 | 301 | 0.0 | 2.0 | 0.00 | 0.06 | 0.00 | 97 | 1010.2 |
| 20260506014403 | 56 | 304 | 0.0 | 2.0 | 0.00 | 0.06 | 0.00 | 97 | 1010.4 |
| 20260506014003 | 56 | 311 | 0.0 | 2.0 | 0.00 | 0.06 | 0.00 | 97 | 1010.3 |
| 20260506013603 | 56 | 326 | 0.0 | 2.0 | 0.00 | 0.06 | 0.00 | 97 | 1010.2 |
| 20260506013204 | 56 | 333 | 1.0 | 4.0 | 0.00 | 0.06 | 0.00 | 97 | 1010.3 |
| 20260506012804 | 56 | 323 | 0.0 | 4.0 | 0.00 | 0.06 | 0.00 | 97 | 1010.3 |
| 20260506012404 | 56 | 320 | 2.0 | 4.0 | 0.00 | 0.06 | 0.00 | 97 | 1010.4 |
| 20260506012004 | 56 | 316 | 1.0 | 2.0 | 0.00 | 0.06 | 0.00 | 97 | 1010.3 |
| 20260506011603 | 56 | 324 | 0.0 | 2.0 | 0.00 | 0.06 | 0.00 | 98 | 1010.5 |
| 20260506011203 | 56 | 335 | 1.0 | 2.0 | 0.00 | 0.06 | 0.00 | 98 | 1010.6 |
| 20260506010803 | 56 | 332 | 0.0 | 2.0 | 0.00 | 0.06 | 0.00 | 98 | 1010.4 |
| 20260506010404 | 56 | 337 | 1.0 | 4.0 | 0.00 | 0.06 | 0.00 | 98 | 1010.3 |
| 20260506010005 | 56 | 348 | 0.0 | 4.0 | 0.00 | 0.06 | 0.00 | 98 | 1010.2 |
| 20260506005604 | 56 | 354 | 1.0 | 2.0 | 0.00 | 0.06 | 0.00 | 98 | 1010.6 |
| 20260506005203 | 56 | 353 | 0.0 | 2.0 | 0.00 | 0.06 | 0.00 | 98 | 1010.5 |
| 20260506004804 | 56 | 337 | 0.0 | 2.0 | 0.00 | 0.06 | 0.00 | 98 | 1010.5 |
| 20260506004613 | 56 | 337 | 0.0 | 2.0 | 0.00 | 0.06 | 0.00 | 98 | 1010.5 |
| 20260506004004 | 56 | 7 | 0.0 | 2.0 | 0.00 | 0.06 | 0.00 | 98 | 1010.5 |
| 20260506003603 | 56 | 4 | 0.0 | 2.0 | 0.00 | 0.06 | 0.00 | 98 | 1010.8 |
| 20260506003204 | 56 | 328 | 0.0 | 2.0 | 0.00 | 0.06 | 0.00 | 98 | 1010.7 |
| 20260506002803 | 56 | 293 | 0.0 | 2.0 | 0.00 | 0.06 | 0.00 | 98 | 1010.6 |
| 20260506002403 | 56 | 272 | 0.0 | 2.0 | 0.00 | 0.06 | 0.00 | 98 | 1010.5 |
| 20260506002003 | 56 | 270 | 0.0 | 2.0 | 0.00 | 0.06 | 0.00 | 98 | 1010.7 |
| 20260506001604 | 56 | 304 | 0.0 | 2.0 | 0.00 | 0.06 | 0.00 | 98 | 1010.7 |
| 20260506001204 | 56 | 297 | 0.0 | 2.0 | 0.00 | 0.06 | 0.00 | 98 | 1010.7 |
| 20260506000804 | 56 | 292 | 0.0 | 2.0 | 0.00 | 0.06 | 0.00 | 98 | 1010.5 |
| 20260506000403 | 56 | 299 | 0.0 | 2.0 | 0.00 | 0.06 | 0.00 | 97 | 1010.6 |
| 20260506000004 | 56 | 305 | 0.0 | 2.0 | 0.00 | 0.06 | 0.00 | 97 | 1010.6 |
| 20260505235816 | 56 | 305 | 0.0 | 2.0 | 0.00 | 0.06 | 0.00 | 97 | 1010.9 |
| 20260505235415 | 56 | 270 | 0.0 | 2.0 | 0.00 | 0.06 | 0.00 | 97 | 1010.7 |
| 20260505235015 | 57 | 325 | 0.0 | 4.0 | 0.00 | 0.06 | 0.00 | 97 | 1010.5 |
| 20260505234404 | 57 | 352 | 0.0 | 4.0 | 0.00 | 0.06 | 0.00 | 97 | 1010.9 |
| 20260505234003 | 57 | 347 | 0.0 | 4.0 | 0.00 | 0.06 | 0.00 | 97 | 1010.7 |
| 20260505233813 | 57 | 346 | 2.0 | 4.0 | 0.00 | 0.06 | 0.00 | 97 | 1010.6 |
| 20260505233203 | 57 | 317 | 0.0 | 4.0 | 0.00 | 0.06 | 0.00 | 96 | 1010.5 |
| 20260505232804 | 57 | 318 | 0.0 | 4.0 | 0.00 | 0.06 | 0.00 | 96 | 1010.5 |
| 20260505232403 | 57 | 322 | 1.0 | 4.0 | 0.00 | 0.06 | 0.00 | 96 | 1010.7 |
| 20260505232003 | 57 | 330 | 2.0 | 4.0 | 0.00 | 0.06 | 0.00 | 96 | 1010.9 |
| 20260505231603 | 57 | 334 | 1.0 | 4.0 | 0.00 | 0.06 | 0.00 | 97 | 1010.8 |
| 20260505231204 | 57 | 338 | 0.0 | 4.0 | 0.00 | 0.06 | 0.00 | 97 | 1010.8 |
| 20260505230804 | 57 | 327 | 1.0 | 4.0 | 0.00 | 0.06 | 0.00 | 97 | 1010.7 |
| 20260505230404 | 57 | 321 | 2.0 | 4.0 | 0.00 | 0.06 | 0.00 | 97 | 1011.0 |
| 20260505230005 | 56 | 303 | 2.0 | 4.0 | 0.00 | 0.06 | 0.00 | 97 | 1010.9 |
| 20260505225603 | 56 | 297 | 2.0 | 4.0 | 0.00 | 0.06 | 0.00 | 97 | 1010.7 |
| 20260505225204 | 56 | 317 | 0.0 | 4.0 | 0.00 | 0.06 | 0.00 | 97 | 1011.0 |
| 20260505224803 | 56 | 7 | 2.0 | 4.0 | 0.00 | 0.06 | 0.00 | 97 | 1011.0 |
| 20260505224404 | 56 | 357 | 1.0 | 4.0 | 0.00 | 0.06 | 0.00 | 97 | 1011.2 |
| 20260505224003 | 57 | 342 | 1.0 | 4.0 | 0.00 | 0.06 | 0.00 | 97 | 1011.1 |
| 20260505223603 | 57 | 338 | 1.0 | 4.0 | 0.00 | 0.06 | 0.00 | 97 | 1011.1 |
| 20260505223413 | 57 | 344 | 1.0 | 4.0 | 0.00 | 0.06 | 0.00 | 97 | 1011.1 |
| 20260505222803 | 57 | 342 | 2.0 | 4.0 | 0.00 | 0.06 | 0.00 | 97 | 1011.1 |
| 20260505222403 | 57 | 337 | 1.0 | 4.0 | 0.00 | 0.06 | 0.00 | 97 | 1011.1 |
| 20260505222004 | 57 | 340 | 2.0 | 4.0 | 0.00 | 0.06 | 0.00 | 97 | 1011.4 |
| 20260505221603 | 57 | 343 | 2.0 | 4.0 | 0.00 | 0.06 | 0.00 | 97 | 1011.3 |
| 20260505221204 | 57 | 342 | 2.0 | 7.0 | 0.00 | 0.06 | 0.00 | 97 | 1011.6 |
| 20260505220804 | 57 | 341 | 1.0 | 7.0 | 0.00 | 0.06 | 0.00 | 97 | 1011.5 |
| 20260505220404 | 57 | 343 | 1.0 | 7.0 | 0.00 | 0.06 | 0.00 | 97 | 1011.5 |
| 20260505220008 | 57 | 336 | 3.0 | 4.0 | 0.00 | 0.06 | 0.00 | 97 | 1011.4 |
| 20260505215604 | 57 | 329 | 2.0 | 6.0 | 0.00 | 0.06 | 0.06 | 97 | 1011.5 |
| 20260505215204 | 57 | 335 | 1.0 | 6.0 | 0.00 | 0.06 | 0.06 | 97 | 1011.4 |
| 20260505214803 | 57 | 338 | 2.0 | 6.0 | 0.00 | 0.06 | 0.06 | 97 | 1011.4 |
| 20260505214405 | 57 | 341 | 2.0 | 4.0 | 0.00 | 0.06 | 0.06 | 96 | 1011.6 |
| 20260505214004 | 57 | 342 | 1.0 | 4.0 | 0.00 | 0.06 | 0.06 | 96 | 1011.4 |
| 20260505213604 | 57 | 329 | 2.0 | 4.0 | 0.00 | 0.06 | 0.06 | 96 | 1011.5 |
| 20260505213414 | 57 | 332 | 1.0 | 2.0 | 0.00 | 0.06 | 0.06 | 96 | 1011.5 |
| 20260505212804 | 57 | 339 | 1.0 | 4.0 | 0.00 | 0.06 | 0.06 | 96 | 1011.6 |
| 20260505212617 | 57 | 346 | 0.0 | 4.0 | 0.00 | 0.06 | 0.06 | 96 | 1011.8 |
| 20260505212003 | 57 | 346 | 2.0 | 4.0 | 0.00 | 0.06 | 0.06 | 96 | 1011.7 |
| 20260505211603 | 57 | 323 | 2.0 | 4.0 | 0.00 | 0.06 | 0.06 | 96 | 1011.8 |
| 20260505211203 | 58 | 321 | 0.0 | 4.0 | 0.00 | 0.06 | 0.06 | 96 | 1011.7 |
| 20260505210803 | 58 | 354 | 1.0 | 4.0 | 0.00 | 0.06 | 0.06 | 95 | 1011.8 |
| 20260505210403 | 58 | 7 | 1.0 | 4.0 | 0.00 | 0.06 | 0.06 | 95 | 1011.6 |
| 20260505210213 | 58 | 5 | 1.0 | 4.0 | 0.00 | 0.06 | 0.06 | 95 | 1011.8 |
| 20260505205604 | 58 | 331 | 1.0 | 4.0 | 0.00 | 0.06 | 0.06 | 95 | 1011.8 |
| 20260505205204 | 58 | 338 | 1.0 | 6.0 | 0.00 | 0.06 | 0.06 | 95 | 1011.6 |
| 20260505204804 | 58 | 324 | 2.0 | 6.0 | 0.00 | 0.06 | 0.06 | 95 | 1011.6 |
| 20260505204403 | 58 | 331 | 2.0 | 6.0 | 0.00 | 0.06 | 0.06 | 95 | 1011.8 |
| 20260505204004 | 58 | 313 | 1.0 | 4.0 | 0.00 | 0.06 | 0.06 | 95 | 1011.8 |
| 20260505203604 | 58 | 320 | 0.0 | 6.0 | 0.00 | 0.06 | 0.06 | 95 | 1011.6 |
| 20260505203414 | 58 | 312 | 2.0 | 6.0 | 0.00 | 0.06 | 0.06 | 95 | 1011.8 |
| 20260505202803 | 58 | 332 | 3.0 | 6.0 | 0.00 | 0.06 | 0.06 | 95 | 1011.7 |
| 20260505202404 | 58 | 343 | 1.0 | 6.0 | 0.00 | 0.06 | 0.06 | 95 | 1011.7 |
| 20260505202004 | 58 | 332 | 2.0 | 6.0 | 0.00 | 0.06 | 0.06 | 95 | 1011.7 |
| 20260505201604 | 58 | 327 | 1.0 | 6.0 | 0.00 | 0.06 | 0.06 | 95 | 1011.8 |
| 20260505201203 | 58 | 323 | 4.0 | 6.0 | 0.00 | 0.06 | 0.06 | 95 | 1012.1 |
| 20260505200803 | 58 | 330 | 1.0 | 6.0 | 0.00 | 0.06 | 0.06 | 95 | 1011.7 |
| 20260505200615 | 58 | 340 | 3.0 | 6.0 | 0.00 | 0.06 | 0.06 | 95 | 1011.7 |
| 20260505200003 | 58 | 341 | 1.0 | 6.0 | 0.00 | 0.06 | 0.06 | 95 | 1011.6 |
| 20260505195608 | 58 | 335 | 2.0 | 6.0 | 0.00 | 0.06 | 0.06 | 95 | 1011.8 |
| 20260505195418 | 58 | 337 | 1.0 | 4.0 | 0.00 | 0.06 | 0.06 | 95 | 1011.8 |
| 20260505194805 | 58 | 343 | 2.0 | 4.0 | 0.00 | 0.06 | 0.06 | 95 | 1011.8 |
| 20260505194404 | 58 | 336 | 1.0 | 6.0 | 0.00 | 0.06 | 0.06 | 95 | 1011.7 |
| 20260505194216 | 58 | 345 | 2.0 | 6.0 | 0.00 | 0.06 | 0.06 | 95 | 1011.7 |
| 20260505193815 | 58 | 340 | 2.0 | 6.0 | 0.00 | 0.06 | 0.06 | 95 | 1011.8 |
| 20260505193205 | 58 | 330 | 2.0 | 6.0 | 0.00 | 0.06 | 0.06 | 95 | 1011.5 |
| 20260505192813 | 58 | 331 | 2.0 | 6.0 | 0.00 | 0.06 | 0.06 | 95 | 1011.4 |
| 20260505192404 | 58 | 334 | 1.0 | 6.0 | 0.00 | 0.06 | 0.06 | 95 | 1011.7 |
| 20260505192003 | 58 | 343 | 2.0 | 6.0 | 0.00 | 0.06 | 0.06 | 95 | 1011.7 |
| 20260505191604 | 58 | 344 | 2.0 | 4.0 | 0.00 | 0.06 | 0.06 | 95 | 1011.8 |
| 20260505191204 | 58 | 352 | 1.0 | 4.0 | 0.00 | 0.06 | 0.06 | 95 | 1011.7 |
| 20260505190803 | 58 | 340 | 2.0 | 4.0 | 0.00 | 0.06 | 0.06 | 95 | 1011.7 |
| 20260505190404 | 58 | 327 | 2.0 | 4.0 | 0.00 | 0.06 | 0.06 | 95 | 1011.7 |
| 20260505190004 | 58 | 344 | 2.0 | 4.0 | 0.00 | 0.06 | 0.06 | 95 | 1011.7 |
| 20260505185603 | 58 | 329 | 1.0 | 4.0 | 0.00 | 0.06 | 0.06 | 95 | 1011.7 |
| 20260505185204 | 58 | 330 | 1.0 | 4.0 | 0.00 | 0.06 | 0.06 | 95 | 1011.5 |
| 20260505184804 | 58 | 331 | 1.0 | 4.0 | 0.00 | 0.06 | 0.06 | 95 | 1011.7 |
| 20260505184404 | 58 | 329 | 1.0 | 4.0 | 0.00 | 0.06 | 0.06 | 95 | 1011.5 |
| 20260505184217 | 58 | 333 | 2.0 | 4.0 | 0.00 | 0.06 | 0.06 | 95 | 1011.5 |
| 20260505183816 | 58 | 334 | 1.0 | 4.0 | 0.00 | 0.06 | 0.06 | 95 | 1011.5 |
| 20260505183205 | 58 | 349 | 3.0 | 4.0 | 0.00 | 0.06 | 0.06 | 95 | 1011.5 |
| 20260505182803 | 58 | 347 | 2.0 | 6.0 | 0.00 | 0.06 | 0.06 | 95 | 1011.4 |
| 20260505182614 | 58 | 349 | 1.0 | 6.0 | 0.00 | 0.06 | 0.06 | 95 | 1011.4 |
| 20260505182004 | 58 | 335 | 2.0 | 4.0 | 0.00 | 0.06 | 0.06 | 95 | 1011.5 |
| 20260505181604 | 58 | 341 | 2.0 | 4.0 | 0.00 | 0.06 | 0.06 | 95 | 1011.4 |
| 20260505181203 | 58 | 340 | 0.0 | 4.0 | 0.00 | 0.06 | 0.06 | 95 | 1011.2 |
| 20260505181017 | 58 | 335 | 2.0 | 4.0 | 0.00 | 0.06 | 0.06 | 95 | 1011.3 |
| 20260505180616 | 58 | 340 | 1.0 | 4.0 | 0.00 | 0.06 | 0.06 | 95 | 1011.1 |
| 20260505180004 | 58 | 339 | 1.0 | 4.0 | 0.00 | 0.06 | 0.06 | 95 | 1011.3 |
| 20260505175603 | 58 | 333 | 2.0 | 4.0 | 0.00 | 0.06 | 0.06 | 95 | 1011.1 |
| 20260505175204 | 58 | 329 | 2.0 | 4.0 | 0.00 | 0.06 | 0.06 | 94 | 1011.4 |
| 20260505174803 | 58 | 323 | 2.0 | 4.0 | 0.00 | 0.06 | 0.06 | 94 | 1011.3 |
| 20260505174403 | 58 | 334 | 2.0 | 6.0 | 0.00 | 0.06 | 0.06 | 94 | 1011.2 |
| 20260505174004 | 58 | 335 | 2.0 | 6.0 | 0.00 | 0.06 | 0.06 | 94 | 1011.2 |
| 20260505173604 | 59 | 338 | 2.0 | 4.0 | 0.00 | 0.06 | 0.06 | 94 | 1011.2 |
| 20260505173203 | 58 | 347 | 2.0 | 4.0 | 0.00 | 0.06 | 0.06 | 94 | 1011.4 |
| 20260505173015 | 58 | 355 | 1.0 | 4.0 | 0.00 | 0.06 | 0.06 | 94 | 1011.4 |
| 20260505172403 | 58 | 5 | 2.0 | 7.0 | 0.00 | 0.06 | 0.06 | 94 | 1011.3 |
| 20260505172004 | 58 | 360 | 2.0 | 7.0 | 0.00 | 0.06 | 0.06 | 94 | 1011.3 |
| 20260505171603 | 58 | 357 | 3.0 | 8.0 | 0.00 | 0.06 | 0.06 | 94 | 1011.4 |
| 20260505171203 | 58 | 6 | 1.0 | 8.0 | 0.00 | 0.06 | 0.06 | 94 | 1010.9 |
| 20260505170804 | 59 | 6 | 2.0 | 8.0 | 0.00 | 0.06 | 0.06 | 94 | 1011.3 |
| 20260505170403 | 59 | 9 | 2.0 | 7.0 | 0.00 | 0.06 | 0.06 | 94 | 1010.9 |
| 20260505170004 | 59 | 16 | 2.0 | 8.0 | 0.00 | 0.06 | 0.06 | 94 | 1011.1 |
| 20260505165603 | 59 | 15 | 3.0 | 8.0 | 0.00 | 0.06 | 0.06 | 94 | 1011.1 |
| 20260505165203 | 59 | 8 | 3.0 | 8.0 | 0.00 | 0.06 | 0.06 | 94 | 1011.2 |
| 20260505165014 | 59 | 1 | 1.0 | 7.0 | 0.00 | 0.06 | 0.06 | 94 | 1011.1 |
| 20260505164403 | 59 | 350 | 2.0 | 8.0 | 0.00 | 0.06 | 0.06 | 94 | 1011.4 |
| 20260505164003 | 59 | 359 | 2.0 | 8.0 | 0.00 | 0.06 | 0.06 | 94 | 1011.3 |
| 20260505163817 | 59 | 359 | 2.0 | 8.0 | 0.00 | 0.06 | 0.06 | 94 | 1011.1 |
| 20260505163203 | 60 | 340 | 2.0 | 7.0 | 0.00 | 0.06 | 0.06 | 94 | 1011.2 |
| 20260505162803 | 60 | 347 | 2.0 | 4.0 | 0.00 | 0.06 | 0.06 | 94 | 1011.3 |
| 20260505162403 | 60 | 325 | 2.0 | 4.0 | 0.00 | 0.06 | 0.06 | 94 | 1011.2 |
| 20260505162004 | 60 | 334 | 2.0 | 6.0 | 0.00 | 0.06 | 0.06 | 94 | 1011.5 |
| 20260505161603 | 60 | 330 | 2.0 | 6.0 | 0.00 | 0.06 | 0.06 | 94 | 1011.2 |
| 20260505161203 | 60 | 321 | 3.0 | 7.0 | 0.00 | 0.06 | 0.06 | 94 | 1011.3 |
| 20260505160805 | 60 | 319 | 3.0 | 7.0 | 0.00 | 0.06 | 0.06 | 94 | 1011.3 |
| 20260505160405 | 60 | 314 | 2.0 | 7.0 | 0.00 | 0.06 | 0.06 | 94 | 1011.3 |
| 20260505153203 | 61 | 312 | 2.0 | 6.0 | 0.00 | 0.06 | 0.06 | 93 | 1011.5 |
| 20260505152803 | 61 | 329 | 1.0 | 6.0 | 0.00 | 0.06 | 0.06 | 92 | 1011.5 |
| 20260505152403 | 62 | 355 | 3.0 | 4.0 | 0.00 | 0.06 | 0.06 | 91 | 1011.5 |
| 20260505152003 | 62 | 343 | 2.0 | 4.0 | 0.00 | 0.06 | 0.06 | 91 | 1011.4 |
| 20260505151604 | 62 | 315 | 0.0 | 2.0 | 0.00 | 0.06 | 0.06 | 91 | 1011.6 |
| 20260505151204 | 62 | 328 | 0.0 | 4.0 | 0.00 | 0.06 | 0.06 | 91 | 1011.5 |
| 20260505150804 | 62 | 336 | 1.0 | 4.0 | 0.00 | 0.06 | 0.06 | 91 | 1011.4 |
| 20260505150403 | 62 | 355 | 1.0 | 4.0 | 0.00 | 0.06 | 0.06 | 90 | 1011.5 |
| 20260505140404 | 61 | 332 | 2.0 | 4.0 | 0.00 | 0.06 | 0.06 | 89 | 1012.0 |
| 20260505124805 | 61 | 7 | 0.0 | 6.0 | 0.00 | 0.06 | 0.06 | 89 | 1012.4 |
| 20260505124403 | 61 | 16 | 0.0 | 6.0 | 0.00 | 0.06 | 0.06 | 89 | 1012.4 |
| 20260505124215 | 61 | 15 | 2.0 | 6.0 | 0.00 | 0.06 | 0.06 | 89 | 1012.2 |
| 20260505123815 | 61 | 19 | 0.0 | 6.0 | 0.00 | 0.06 | 0.06 | 89 | 1012.4 |
| 20260505123203 | 61 | 22 | 1.0 | 4.0 | 0.00 | 0.06 | 0.06 | 89 | 1012.5 |
| 20260505122803 | 61 | 17 | 2.0 | 4.0 | 0.00 | 0.06 | 0.06 | 89 | 1012.5 |
| 20260505122408 | 61 | 16 | 2.0 | 4.0 | 0.00 | 0.06 | 0.06 | 89 | 1012.3 |
| 20260505122003 | 61 | 61 | 1.0 | 4.0 | 0.00 | 0.06 | 0.06 | 89 | 1012.5 |
| 20260505121604 | 61 | 71 | 1.0 | 4.0 | 0.00 | 0.06 | 0.06 | 89 | 1012.5 |
| 20260505121204 | 61 | 67 | 1.0 | 4.0 | 0.00 | 0.06 | 0.06 | 88 | 1012.6 |
| 20260505120803 | 61 | 39 | 1.0 | 7.0 | 0.00 | 0.06 | 0.06 | 88 | 1012.5 |
| 20260505120615 | 61 | 34 | 2.0 | 7.0 | 0.00 | 0.06 | 0.06 | 87 | 1012.6 |
| 20260505120214 | 61 | 36 | 1.0 | 7.0 | 0.00 | 0.06 | 0.06 | 87 | 1012.6 |
| 20260505115604 | 62 | 56 | 1.0 | 4.0 | 0.00 | 0.06 | 0.06 | 86 | 1012.6 |
| 20260505115204 | 62 | 47 | 1.0 | 4.0 | 0.00 | 0.06 | 0.06 | 86 | 1012.7 |
| 20260505114803 | 61 | 52 | 1.0 | 4.0 | 0.00 | 0.06 | 0.06 | 85 | 1012.6 |
| 20260505114404 | 62 | 59 | 2.0 | 7.0 | 0.00 | 0.06 | 0.06 | 86 | 1012.6 |
| 20260505114004 | 62 | 59 | 4.0 | 8.0 | 0.00 | 0.06 | 0.06 | 84 | 1012.6 |
| 20260505113604 | 62 | 42 | 3.0 | 8.0 | 0.01 | 0.06 | 0.06 | 84 | 1012.6 |
| 20260505113203 | 62 | 52 | 1.0 | 8.0 | 0.01 | 0.06 | 0.06 | 84 | 1012.7 |
| 20260505113014 | 62 | 56 | 4.0 | 8.0 | 0.01 | 0.06 | 0.06 | 83 | 1012.5 |
| 20260505112405 | 62 | 93 | 3.0 | 7.0 | 0.01 | 0.06 | 0.06 | 84 | 1012.3 |
| 20260505112003 | 62 | 83 | 3.0 | 7.0 | 0.01 | 0.06 | 0.06 | 85 | 1012.5 |
| 20260505111604 | 61 | 68 | 2.0 | 7.0 | 0.01 | 0.06 | 0.06 | 86 | 1012.4 |
| 20260505111203 | 61 | 56 | 2.0 | 7.0 | 0.01 | 0.06 | 0.06 | 86 | 1012.7 |
| 20260505111016 | 62 | 43 | 3.0 | 7.0 | 0.01 | 0.06 | 0.06 | 85 | 1012.6 |
| 20260505110403 | 62 | 41 | 2.0 | 7.0 | 0.01 | 0.06 | 0.06 | 85 | 1012.6 |
| 20260505110215 | 62 | 41 | 1.0 | 7.0 | 0.01 | 0.06 | 0.06 | 85 | 1012.4 |
| 20260505102003 | 62 | 71 | 2.0 | 4.0 | 0.00 | 0.05 | 0.05 | 83 | 1013.0 |
| 20260505101603 | 63 | 50 | 3.0 | 4.0 | 0.00 | 0.05 | 0.05 | 81 | 1012.9 |
| 20260505101204 | 62 | 56 | 0.0 | 4.0 | 0.00 | 0.05 | 0.05 | 82 | 1013.2 |
| 20260505100803 | 62 | 71 | 0.0 | 4.0 | 0.01 | 0.05 | 0.05 | 82 | 1012.9 |
| 20260505100403 | 62 | 96 | 1.0 | 2.0 | 0.01 | 0.05 | 0.05 | 85 | 1013.0 |
| 20260505100004 | 62 | 88 | 0.0 | 2.0 | 0.02 | 0.05 | 0.05 | 85 | 1010.3 |
| 20260505095604 | 62 | 61 | 0.0 | 2.0 | 0.02 | 0.05 | 0.05 | 87 | 1010.4 |
| 20260505095205 | 61 | 69 | 2.0 | 2.0 | 0.04 | 0.05 | 0.05 | 87 | 1010.5 |
| 20260505094804 | 61 | 95 | 0.0 | 4.0 | 0.04 | 0.05 | 0.05 | 87 | 1010.5 |
| 20260505094403 | 61 | 90 | 0.0 | 4.0 | 0.05 | 0.05 | 0.05 | 88 | 1010.3 |
| 20260505094003 | 60 | 60 | 1.0 | 4.0 | 0.05 | 0.05 | 0.05 | 86 | 1010.3 |
| 20260505093604 | 60 | 53 | 0.0 | 4.0 | 0.05 | 0.05 | 0.05 | 90 | 1010.1 |
| 20260505093204 | 61 | 60 | 2.0 | 4.0 | 0.05 | 0.05 | 0.05 | 89 | 1010.1 |
| 20260505092804 | 60 | 53 | 0.0 | 2.0 | 0.05 | 0.05 | 0.05 | 90 | 1010.1 |
| 20260505092613 | 60 | 59 | 1.0 | 2.0 | 0.05 | 0.05 | 0.05 | 89 | 1010.3 |
| 20260505092003 | 61 | 62 | 0.0 | 2.0 | 0.05 | 0.05 | 0.05 | 88 | 1010.2 |
| 20260505091603 | 61 | 44 | 0.0 | 2.0 | 0.05 | 0.05 | 0.05 | 90 | 1010.3 |
| 20260505091204 | 61 | 22 | 0.0 | 2.0 | 0.05 | 0.05 | 0.05 | 88 | 1010.3 |
| 20260505090804 | 61 | 0 | 0.0 | 0.0 | 0.04 | 0.04 | 0.04 | 88 | 1010.4 |
| 20260505090403 | 62 | 0 | 0.0 | 0.0 | 0.04 | 0.04 | 0.04 | 87 | 1010.2 |
| 20260505090214 | 62 | 0 | 0.0 | 0.0 | 0.04 | 0.04 | 0.04 | 86 | 1010.2 |
| 20260505085603 | 61 | 0 | 0.0 | 0.0 | 0.02 | 0.02 | 0.02 | 83 | 1010.3 |
| 20260505085204 | 62 | 22 | 0.0 | 2.0 | 0.01 | 0.01 | 0.01 | 84 | 1010.4 |
| 20260505084803 | 61 | 22 | 0.0 | 2.0 | 0.01 | 0.01 | 0.01 | 82 | 1010.2 |
| 20260505084403 | 62 | 0 | 0.0 | 0.0 | 0.00 | 0.00 | 0.00 | 83 | 1010.1 |
| 20260505084004 | 62 | 0 | 0.0 | 0.0 | 0.00 | 0.00 | 0.00 | 84 | 1010.1 |
| 20260505083603 | 62 | 0 | 0.0 | 0.0 | 0.00 | 0.00 | 0.00 | 83 | 1010.2 |
| 20260505083204 | 62 | 0 | 0.0 | 0.0 | 0.00 | 0.00 | 0.00 | 80 | 1010.0 |
| 20260505082804 | 62 | 0 | 0.0 | 0.0 | 0.00 | 0.00 | 0.00 | 81 | 1010.2 |
| 20260505082613 | 62 | 0 | 0.0 | 0.0 | 0.00 | 0.00 | 0.00 | 82 | 1010.1 |
| 20260505082218 | 62 | 0 | 0.0 | 0.0 | 0.00 | 0.00 | 0.00 | 81 | 1010.1 |
| 20260505081604 | 62 | 270 | 0.0 | 2.0 | 0.00 | 0.00 | 0.00 | 81 | 1010.2 |
| 20260505081203 | 62 | 270 | 0.0 | 2.0 | 0.00 | 0.00 | 0.00 | 78 | 1009.8 |
| 20260505080804 | 62 | 270 | 1.0 | 2.0 | 0.00 | 0.00 | 0.00 | 80 | 1010.0 |
| 20260505080403 | 62 | 0 | 0.0 | 0.0 | 0.00 | 0.00 | 0.00 | 82 | 1010.2 |
| 20260505080003 | 61 | 0 | 0.0 | 0.0 | 0.00 | 0.00 | 0.00 | 82 | 1010.2 |
| 20260505075603 | 61 | 0 | 0.0 | 0.0 | 0.00 | 0.00 | 0.00 | 82 | 1010.2 |
| 20260505075203 | 61 | 0 | 0.0 | 0.0 | 0.00 | 0.00 | 0.00 | 83 | 1010.1 |
| 20260505074803 | 61 | 0 | 0.0 | 0.0 | 0.00 | 0.00 | 0.00 | 84 | 1010.3 |
| 20260505074403 | 61 | 90 | 0.0 | 2.0 | 0.00 | 0.00 | 0.00 | 84 | 1010.2 |
| 20260505074003 | 61 | 90 | 0.0 | 2.0 | 0.00 | 0.00 | 0.00 | 82 | 1010.1 |
| 20260505073603 | 61 | 90 | 0.0 | 2.0 | 0.00 | 0.00 | 0.00 | 82 | 1010.2 |
| 20260505073203 | 61 | 90 | 0.0 | 2.0 | 0.00 | 0.00 | 0.00 | 82 | 1010.3 |
| 20260505072804 | 60 | 90 | 0.0 | 2.0 | 0.00 | 0.00 | 0.00 | 83 | 1010.2 |
| 20260505072404 | 60 | 90 | 0.0 | 2.0 | 0.00 | 0.00 | 0.00 | 82 | 1010.2 |
| 20260505072003 | 60 | 90 | 0.0 | 2.0 | 0.00 | 0.00 | 0.00 | 83 | 1010.0 |
| 20260505071603 | 60 | 90 | 1.0 | 2.0 | 0.00 | 0.00 | 0.00 | 82 | 1010.0 |
| 20260505071205 | 61 | 90 | 0.0 | 2.0 | 0.00 | 0.00 | 0.00 | 83 | 1010.0 |
| 20260505071017 | 60 | 90 | 0.0 | 2.0 | 0.00 | 0.00 | 0.00 | 83 | 1010.0 |
| 20260505070616 | 60 | 90 | 0.0 | 2.0 | 0.00 | 0.00 | 0.00 | 82 | 1010.1 |
| 20260505070004 | 60 | 90 | 0.0 | 2.0 | 0.00 | 0.00 | 0.00 | 85 | 1009.9 |
| 20260505065603 | 60 | 112 | 0.0 | 2.0 | 0.00 | 0.00 | 0.00 | 84 | 1010.0 |
| 20260505065204 | 60 | 98 | 0.0 | 2.0 | 0.00 | 0.00 | 0.00 | 84 | 1009.8 |
| 20260505064804 | 60 | 91 | 0.0 | 2.0 | 0.00 | 0.00 | 0.00 | 83 | 1009.8 |
| 20260505064613 | 60 | 87 | 1.0 | 4.0 | 0.00 | 0.00 | 0.00 | 82 | 1009.8 |
| 20260505064003 | 60 | 82 | 2.0 | 4.0 | 0.00 | 0.00 | 0.00 | 83 | 1009.7 |
| 20260505063603 | 60 | 89 | 1.0 | 4.0 | 0.00 | 0.00 | 0.00 | 84 | 1009.7 |
| 20260505063203 | 60 | 86 | 2.0 | 4.0 | 0.00 | 0.00 | 0.00 | 84 | 1009.8 |
| 20260505062803 | 60 | 83 | 2.0 | 4.0 | 0.00 | 0.00 | 0.00 | 85 | 1009.9 |
| 20260505062403 | 60 | 84 | 1.0 | 4.0 | 0.00 | 0.00 | 0.00 | 89 | 1009.7 |
| 20260505062003 | 60 | 83 | 0.0 | 4.0 | 0.00 | 0.00 | 0.00 | 89 | 1009.6 |
| 20260505061603 | 60 | 86 | 1.0 | 4.0 | 0.00 | 0.00 | 0.00 | 88 | 1009.7 |
| 20260505061203 | 60 | 87 | 2.0 | 4.0 | 0.00 | 0.00 | 0.00 | 88 | 1009.5 |
| 20260505060804 | 60 | 85 | 1.0 | 4.0 | 0.00 | 0.00 | 0.00 | 88 | 1009.6 |